Location: Bamobli
(6.6379°N, 10.9396°W)
Time: 23:01:01
(UTC+00:00)

N. Korean satellite - Pass Details

Date: 12 March 2021
Orbit: 453 x 499 km, 97.2° (Epoch: 12 April)

Event Time Altitude Azimuth Distance (km) Brightness Sun altitude
Rises 06:13:42 0° 355° (N) 2,563 10.2 -10.2°
Reaches altitude 10° 06:15:55 10° 344° (NNW) 1,688 9.1 -9.7°
Maximum altitude 06:19:09 30° 282° (WNW) 902 7.4 -8.9°
Drops below altitude 10° 06:22:24 10° 219° (SW) 1,699 9.0 -8.1°
Sets 06:24:39 0° 208° (SSW) 2,584 10.0 -7.5°
